Regional Weather Roundup
Issued by NWS

Home | Current Version | Previous Version | Graphics & Text | Print | Product List | Glossary On
Versions: 1 2 3 4 5 6 7 8 9 10 11 12 13 14 15 16 17 18 19 20 21 22 23 24 25 26 27 28 29 30 31 32 33 34 35 36 37 38 39 40 41 42 43 44 45 46 47 48 49 50
000
ASUS43 KFSD 201610
RWRSD

WEATHER ROUNDUP FOR SOUTH DAKOTA
NATIONAL WEATHER SERVICE SIOUX FALLS SD
1100 AM CDT SUN AUG 20 2017

NOTE: "FAIR" INDICATES FEW OR NO CLOUDS BELOW 12,000 FEET WITH NO
SIGNIFICANT WEATHER AND/OR OBSTRUCTIONS TO VISIBILITY.


SDZ001>005-009-010-012>017-201700-
NORTHWEST AND NORTH CENTRAL SOUTH DAKOTA

CITY           SKY/WX    TMP DP  RH WIND       PRES   REMARKS
BUFFALO          N/A     67  41  38 E8        30.06S
FAITH            N/A     68  45  43 NE15      30.09R
MOBRIDGE       CLOUDY    70  50  49 NE14      30.01R
$$

SDZ012>016-024>037-041>051-057-063-072>074-201700-
SOUTHWEST AND SOUTH CENTRAL SOUTH DAKOTA

CITY           SKY/WX    TMP DP  RH WIND       PRES   REMARKS
RAPID CTY ARPT SUNNY     69  47  45 N9        30.11S
PIERRE         SUNNY     73  52  47 E16       29.97R
CUSTER         SUNNY     64  45  49 E9G21     30.20R
ELLSWORTH AFB  SUNNY     69  46  44 CALM      30.11R
PHILIP         PTSUNNY   75  53  46 VRB5      30.05R
PINE RIDGE     SUNNY     75  54  47 NE8       30.09R
SPEARFISH      FAIR      68  46  45 E10       30.14R
WINNER         FAIR      75  61  61 NE15      30.00S
$$

SDZ004>011-016>023-039-040-201700-
NORTHEAST SOUTH DAKOTA

CITY           SKY/WX    TMP DP  RH WIND       PRES   REMARKS
ABERDEEN       LGT RAIN  62  53  72 NE12      29.98F
WATERTOWN      CLOUDY    66  56  70 NE8       30.01R
BROOKINGS      SUNNY     72  60  66 NE8       29.98R
SISSETON         N/A     65  55  70 NW13      29.97R
$$

SDZ017-020-022-023-036>040-048>070-201700-
SOUTHEAST SOUTH DAKOTA

CITY           SKY/WX    TMP DP  RH WIND       PRES   REMARKS
SIOUX FALLS    MOSUNNY   78  68  71 NE7       29.96R
HURON          MOSUNNY   71  59  65 N15       30.01R
CHAMBERLAIN    SUNNY     76  58  55 NE12G20   29.99F
MITCHELL       PTSUNNY   72  66  81 N10       29.99R
YANKTON        SUNNY     77  67  71 SE6       29.97R
$$

ABBREVIATIONS USED IN REMARKS
   TC - TEMPERATURE IN CELSIUS
  WCI - WIND CHILL INDEX
   HX - HEAT INDEX
  VSB - VISIBILITY





USA.gov is the U.S. government's official web portal to all federal, state and local government web resources and services.